829  
ASUS41 KPHI 182012  
RWRPHI  
 
REGIONAL WEATHER ROUNDUP  
NATIONAL WEATHER SERVICE MOUNT HOLLY NJ  
400 PM EDT WED SEP 18 2019  
 
NOTE: "FAIR" INDICATES FEW OR NO CLOUDS BELOW 12,000 FEET WITH NO  
SIGNIFICANT WEATHER AND/OR S TO VISIBILITY
.  
 
* = STATION DOES NOT REPORT PRECIPITATION (E.G. RAIN, SNOW, ETC.)  
OR FOG.
 
 
NJZ015>026-182100-  
SOUTHERN NEW JERSEY  
 
CITY SKY/WX TMP DP RH WIND PRES REMARKS
 
POMONA FAIR 70 52 52 E17G25 30.21R  
WILDWOOD* FAIR 70 53 54 E16G22 30.20S  
MILLVILLE PTSUNNY 73 47 39 E13G18 30.20S  
WRIGHTSTOWN FAIR 71 47 43 NE12 30.22R  
MOUNT HOLLY PTSUNNY 73 49 42 NE6 30.21S  
TRENTON FAIR 72 48 42 NE12 30.22S  
 

 
NJZ001>014-182100-  
NORTHERN NEW JERSEY  
 
CITY SKY/WX TMP DP RH WIND PRES REMARKS
 
SUSSEX FAIR 71 45 39 NE7 30.24S  
ANDOVER* N/A 71 44 37 VRB3 30.25R  
MORRISTOWN PTSUNNY 68 52 56 E5 30.24R  
NEWARK FAIR 70 48 45 NE14 30.24R  
TETERBORO CLOUDY 68 49 50 E9 30.23R  
CALDWELL FAIR 70 46 42 NE8 30.24R  
SOMERVILLE FAIR 72 47 40 E7 30.21S  
ALLAIRE* FAIR 67 48 50 NE13 30.25R  
TOMS RIVER* PTSUNNY 66 52 60 E10G17 30.24R  
 

 
PAZ043-044-047-054-055-060>062-066>071-182100-  
EASTERN PENNSYLVANIA  
 
CITY SKY/WX TMP DP RH WIND PRES REMARKS
 
PHILADELPHIA FAIR 75 46 35 NE10 30.21S  
NORTH PHILA FAIR 75 46 35 VRB5 30.23S  
BLUE BELL* FAIR 71 47 41 NE6 30.22S  
DOYLESTOWN FAIR 75 47 36 VRB6 30.22S  
QUAKERTOWN* SUNNY 72 48 43 NE6 30.23  
PERKASIE* FAIR 70 48 46 N8 30.24S  
POTTSTOWN FAIR 70 49 47 NE10 30.23F  
LANCASTER FAIR 75 50 41 E8 30.21S  
COATESVILLE FAIR 70 48 46 E10G16 30.23S  
WEST CHESTER FAIR 73 45 35 NE5 30.22S  
READING FAIR 73 48 41 NE12 30.21S  
ALLENTOWN FAIR 73 46 38 NE5 30.23S  
QN CITY/ALNTWN FAIR 72 46 40 E9 30.24S  
MOUNT POCONO FAIR 67 40 37 NE7 30.25F  
HAZLETON FAIR 70 41 35 CALM 30.27S  
LEHIGHTON FAIR 72 45 37 NE3 30.23S  
WILKES BARRE FAIR 75 40 28 VRB5 30.22F  
 

 
DEZALL-MDZ008-012-015-019-020-182100-  
DELAWARE AND EASTERN MARYLAND  
 
CITY SKY/WX TMP DP RH WIND PRES REMARKS
 
WILMINGTON FAIR 75 49 39 NE9 30.20F  
DOVER FAIR 73 53 48 E9 30.19S  
CHESWOLD PTCLDY 73 52 46 NE9 30.19S  
GEORGETOWN NOT AVBL  
EASTON MOSUNNY 77 52 41 NE8 30.21F  
STEVENSVILLE FAIR 75 54 46 N9 30.19S  
ABERDEEN PTSUNNY 73 50 43 VRB7 30.19  
PATUXENT FAIR 78 51 38 NE12 30.17  
OCEAN CITY PTSUNNY 70 53 54 NE14 30.19R  
WALLOPS ISLAND FAIR 71 55 56 NE17G26 30.18R  
CAMBRIDGE MOSUNNY 75 50 41 NE9 30.17S  
SALISBURY FAIR 72 52 49 NE17G24 30.18S  
 

 
PAZ001-021-NYZ056-072-MDZ011-DCZ001-182100-  
OTHER NEARBY LOCATIONS  
 
CITY SKY/WX TMP DP RH WIND PRES REMARKS
 
HARRISBURG FAIR 76 46 34 VRB5 30.20S  
WILLIAMSPORT FAIR 76 39 26 NE12 30.21S  
BINGHAMTON FAIR 69 42 37 N9 30.26F  
NEW YORK CITY PTSUNNY 68 48 48 E7 30.27R  
BALTIMORE FAIR 77 51 40 E8 30.19R  
WASHINGTON DC PTSUNNY 78 49 35 E5 30.19R  
 

 
 
 
CLICK HERE TO GO TO PREVIOUS BULLETINS.

The Nexlab PA Page
The Nexlab NJ Page
The Nexlab DE Page
The Nexlab MD Page Main Text Page